George, South Africa

2:11 PM SAST on November 24, 2017 (GMT +0200)
George

Weather History for FAGG - December, 2012

Change the Weather History Date:

Thursday, December 13, 2012

  Actual Average Record
Temperature  
Mean Temperature 69 °F -  
Max Temperature 76 °F 73 °F 89 °F (1999)
Min Temperature 62 °F 57 °F 50 °F (2005)
Cooling Degree Days 4    
Growing Degree Days 19 (Base 50)    
Moisture  
Dew Point 62 °F    
Average Humidity 82    
Maximum Humidity 94    
Minimum Humidity 62    
Precipitation  
Precipitation 0.00 in - - ()
Sea Level Pressure  
Sea Level Pressure 29.97 in    
Wind  
Wind Speed 6 mph ()    
Max Wind Speed 13 mph    
Max Gust Speed -    
Visibility 6.7 miles    
Events Rain    
Averages and records for this station are not official NWS values.
T = Trace of Precipitation, MM = Missing Value Source: Averaged Metar Reports

Daily Weather History Graph

Daily Weather History Graph

Search for Another Location

Airport or City:

Trip Planner

Search our weather history database for the weather conditions in past years. The results will help you decide how hot, cold, wet, or windy it might be!

Date:

Astronomy

Dec. 13, 2012 Rise Set
Actual Time 5:13 AM SAST 7:36 PM SAST
Civil Twilight 4:43 AM SAST 8:05 PM SAST
Nautical Twilight 4:08 AM SAST 8:41 PM SAST
Astronomical Twilight 3:28 AM SAST 9:21 PM SAST
Moon 5:12 AM SAST (12/13) 7:46 PM SAST (12/13)
Length of Visible Light 15h 22m
Length of Day
14h 23m
New Moon, 0% of the Moon is Illuminated
Dec 13
New Moon
Dec 20
First Quarter
Dec 28
Full
Jan 5
Last Quarter
Jan 11
New

Hourly Weather History & Observations

Time (SAST) Temp. Dew Point Humidity Pressure Visibility Wind Dir Wind Speed Gust Speed Precip Events Conditions
12:00 AM 62.6 °F 59.0 °F 88% 29.95 in - NNW 3.5 mph - N/A   Clear
1:00 AM 62.6 °F 60.8 °F 94% 29.95 in - West 4.6 mph - N/A   Clear
2:00 AM 63 °F 61 °F 90% 29.95 in 6 mi West 5.8 mph - -  
2:00 AM 62.6 °F 60.8 °F 94% 29.95 in 5.6 mi West 5.8 mph - N/A   Unknown
3:00 AM 62.6 °F 60.8 °F 94% 29.92 in - WNW 6.9 mph - N/A   Clear
4:00 AM 62.6 °F 60.8 °F 94% 29.92 in 4.3 mi WNW 4.6 mph - N/A   Scattered Clouds
5:00 AM 63 °F 61 °F 89% 29.94 in 5 mi West 11.5 mph - - Rain Light Rain
5:00 AM 62.6 °F 60.8 °F 94% 29.92 in 5.0 mi West 9.2 mph - N/A Rain Light Rain
6:00 AM 62.6 °F 60.8 °F 94% 29.95 in 6.2 mi West 9.2 mph - N/A   Mostly Cloudy
7:00 AM 64.4 °F 60.8 °F 88% 29.95 in 6.2 mi West 9.2 mph - N/A   Mostly Cloudy
8:00 AM 64 °F 61 °F 87% 30.00 in 4 mi WSW 8.1 mph - - Rain Light Drizzle
8:00 AM 64.4 °F 60.8 °F 88% 29.98 in 4.3 mi WSW 8.1 mph - N/A   Light Drizzle
9:00 AM 66.2 °F 60.8 °F 83% 30.01 in 6.2 mi SW 5.8 mph - N/A   Mostly Cloudy
10:00 AM 69.8 °F 60.8 °F 73% 30.01 in 6.2 mi SE 3.5 mph - N/A   Mostly Cloudy
11:00 AM 72 °F 62 °F 64% 30.01 in 12 mi East 4.6 mph - -   Mostly Cloudy
11:00 AM 71.6 °F 62.6 °F 73% 30.01 in 6.2 mi Variable 2.3 mph - N/A   Mostly Cloudy
12:00 PM 75.2 °F 64.4 °F 69% 29.98 in 6.2 mi SE 9.2 mph - N/A   Partly Cloudy
1:00 PM 73.4 °F 62.6 °F 69% 29.98 in 6.2 mi SE 11.5 mph - N/A   Partly Cloudy
2:00 PM 73 °F 63 °F 62% 29.94 in 12 mi SSE 11.5 mph - -   Scattered Clouds
2:00 PM 73.4 °F 62.6 °F 69% 29.95 in 6.2 mi SSE 12.7 mph - N/A   Partly Cloudy
3:00 PM 71.6 °F 62.6 °F 73% 29.98 in 6.2 mi ESE 12.7 mph - N/A   Partly Cloudy
4:00 PM 71.6 °F 62.6 °F 73% 29.95 in 6.2 mi SE 10.4 mph - N/A   Partly Cloudy
5:00 PM 71 °F 62 °F 67% 29.96 in 12 mi SE 10.4 mph - -   Partly Cloudy
5:00 PM 69.8 °F 62.6 °F 78% 29.98 in 6.2 mi SE 10.4 mph - N/A   Scattered Clouds
6:00 PM 69.8 °F 62.6 °F 78% 29.95 in 6.2 mi ESE 8.1 mph - N/A   Partly Cloudy
7:00 PM 68.0 °F 62.6 °F 83% 29.98 in 6.2 mi ESE 6.9 mph - N/A   Partly Cloudy
8:00 PM 65 °F 61 °F 84% 29.99 in 12 mi East 6.9 mph - -   Scattered Clouds
8:00 PM 64.4 °F 60.8 °F 88% 29.98 in 6.2 mi East 6.9 mph - N/A   Partly Cloudy
9:00 PM 66.2 °F 60.8 °F 83% 30.01 in 6.2 mi SE 4.6 mph - N/A   Mostly Cloudy
10:00 PM 66.2 °F 62.6 °F 88% 30.01 in 6.2 mi ESE 4.6 mph - N/A   Mostly Cloudy
11:00 PM 66.2 °F 62.6 °F 88% 30.01 in 6.2 mi Variable 2.3 mph - N/A   Mostly Cloudy